Location: Ozark
(37.5425°N, 88.7628°W)
Time: 01:35:19
(UTC+00:00)

STARLINK-1046 - Pass Details

Date: 26 January 2020
Orbit: 549 x 551 km, 53.0° (Epoch: 25 February)

Event Time Altitude Azimuth Distance (km) Brightness Sun altitude
Exits shadow 12:03:56 11° 245° (WSW) 1,773 5.8 -12.0°
Maximum altitude 12:07:52 52° 322° (NW) 685 3.8 -11.2°
Drops below altitude 10° 12:11:55 10° 39° (NE) 1,826 6.6 -10.5°
Sets 12:14:13 0° 45° (NE) 2,723 7.6 -10.0°
